Location: Albuquerque Trailhead
(34.7934°N, 106.3736°W)
Time: 22:36:21
(UTC+00:00)

NOAA 19 - Pass Details

Date: 05 April 2023
Orbit: 840 x 859 km, 99.1° (Epoch: 28 May)

Event Time Altitude Azimuth Distance (km) Brightness Sun altitude
Exits shadow 04:00:27 14° 214° (SW) 2,215 7.4 -29.9°
Maximum altitude 04:04:05 26° 264° (W) 1,619 7.0 -30.5°
Drops below altitude 10° 04:08:34 10° 319° (NW) 2,466 8.4 -31.2°
Sets 04:11:20 0° 332° (NNW) 3,403 9.2 -31.7°
